Weather History for Mayport NS, FL

Change the Weather History Date:

Thursday, October 3, 2013

  Actual Average Record
Temperature  
Mean Temperature 78 °F -  
Max Temperature 82 °F 80 °F 88 °F (2006)
Min Temperature 73 °F 70 °F 37 °F (1996)
Cooling Degree Days 12    
Growing Degree Days 28 (Base 50)    
Moisture  
Dew Point 71 °F    
Average Humidity 81    
Maximum Humidity 90    
Minimum Humidity 71    
Precipitation  
Precipitation 0.00 in - - ()
Sea Level Pressure  
Sea Level Pressure 30.07 in    
Wind  
Wind Speed 9 mph (NE)    
Max Wind Speed 15 mph    
Max Gust Speed -    
Visibility 10 miles    
Events      
Averages and records for this station are not official NWS values.
T = Trace of Precipitation, MM = Missing Value Source: NWS Daily Summary

Daily Weather History Graph

Daily Weather History Graph

Search for Another Location

Airport:

Trip Planner

Search our weather history database for the weather conditions in past years. The results will help you decide how hot, cold, wet, or windy it might be!

Date:

Astronomy

Oct. 03, 2013 Rise Set
Actual Time 7:20 AM EDT 7:08 PM EDT
Civil Twilight 6:56 AM EDT 7:32 PM EDT
Nautical Twilight 6:28 AM EDT 8:00 PM EDT
Astronomical Twilight 6:00 AM EDT 8:27 PM EDT
Moon 5:56 AM EDT (10/3) 6:14 PM EDT (10/3)
Length of Visible Light 12h 35m
Length of Day
11h 47m
Waning Crescent, 2% of the Moon is Illuminated
Oct 3
Waning Crescent
Oct 4
New
Oct 11
First Quarter
Oct 18
Full
Oct 26
Last Quarter

Hourly Weather History & Observations

Time (EDT) Temp. Heat Index Dew Point Humidity Pressure Visibility Wind Dir Wind Speed Gust Speed Precip Events Conditions
12:52 AM 73.9 °F - 69.1 °F 85% 30.09 in 10.0 mi ENE 9.2 mph - N/A   Clear
1:52 AM 73.0 °F - 69.1 °F 87% 30.08 in 10.0 mi Variable 3.5 mph - N/A   Clear
2:52 AM 73.9 °F - 70.0 °F 87% 30.06 in 10.0 mi NNE 8.1 mph - N/A   Clear
3:52 AM 73.0 °F - 70.0 °F 90% 30.05 in 10.0 mi North 5.8 mph - N/A   Scattered Clouds
4:52 AM 75.0 °F - 70.0 °F 84% 30.04 in 10.0 mi NNE 8.1 mph - N/A   Clear
5:52 AM 75.0 °F - 70.0 °F 84% 30.04 in 10.0 mi NNE 6.9 mph - N/A   Clear
6:04 AM 75.0 °F - 70.0 °F 84% 30.05 in 10.0 mi NE 6.9 mph - N/A   Scattered Clouds
6:52 AM 75.0 °F - 70.0 °F 84% 30.05 in 10.0 mi NNE 9.2 mph - N/A   Mostly Cloudy
7:52 AM 73.9 °F - 70.0 °F 87% 30.06 in 10.0 mi North 5.8 mph - N/A   Mostly Cloudy
8:52 AM 77.0 °F - 70.0 °F 79% 30.08 in 10.0 mi NNE 10.4 mph - N/A   Mostly Cloudy
9:52 AM 79.0 °F - 71.1 °F 77% 30.10 in 10.0 mi NE 13.8 mph - N/A   Mostly Cloudy
10:52 AM 81.0 °F 84.9 °F 71.1 °F 72% 30.12 in 10.0 mi NE 12.7 mph - N/A   Mostly Cloudy
11:52 AM 82.0 °F 86.7 °F 72.0 °F 71% 30.12 in 10.0 mi NE 11.5 mph - N/A   Mostly Cloudy
12:52 PM 82.0 °F 86.7 °F 72.0 °F 71% 30.12 in 10.0 mi NE 11.5 mph - N/A   Mostly Cloudy
1:52 PM 82.0 °F 87.4 °F 73.0 °F 74% 30.09 in 10.0 mi NE 12.7 mph - N/A   Mostly Cloudy
2:52 PM 82.0 °F 87.4 °F 73.0 °F 74% 30.07 in 10.0 mi NE 15.0 mph - N/A   Mostly Cloudy
3:52 PM 82.0 °F 86.7 °F 72.0 °F 71% 30.06 in 10.0 mi NE 12.7 mph - N/A   Mostly Cloudy
4:52 PM 81.0 °F 85.8 °F 73.0 °F 77% 30.05 in 10.0 mi NE 11.5 mph - N/A   Mostly Cloudy
5:52 PM 79.0 °F - 72.0 °F 79% 30.05 in 10.0 mi NE 9.2 mph - N/A   Mostly Cloudy
6:52 PM 78.1 °F - 72.0 °F 81% 30.05 in 10.0 mi NE 9.2 mph - N/A   Mostly Cloudy
7:52 PM 77.0 °F - 73.0 °F 88% 30.06 in 10.0 mi NE 9.2 mph - N/A   Mostly Cloudy
8:52 PM 77.0 °F - 73.0 °F 88% 30.08 in 10.0 mi ENE 9.2 mph - N/A   Mostly Cloudy
9:52 PM 77.0 °F - 73.0 °F 88% 30.09 in 10.0 mi ENE 6.9 mph - N/A   Mostly Cloudy
10:52 PM 77.0 °F - 73.0 °F 88% 30.10 in 10.0 mi ENE 6.9 mph - N/A   Scattered Clouds